"Pseudo-MPEC" for P21Oe5b

Created 2023 Nov 21 6:22:09 UT using Find_Orb

Click here for an explanation of pseudo-MPECs

 
 Astrometry: 
     P21Oe5b* C2023 11 175Kt,8\@Jq'.`$01maA(5,.W#feF%d9vyJ`0,Z#ahcexO29p;OV#`F52
     P21Oe5b  C2023 11 17ZiAstrometryKZoiMEiEp)VVc64JYQi1Z!%*p.aMnu=tUfc]1,([F52
     P21Oe5b  C2023 11 175^lxOb1EslGRvq`]EUX)h(F%mS-OBFAuO!Q72wdXx=UIWlnfKdomF52
     P21Oe5b  C2023 11 17Fpr:#YCEYt.?Ly+#d!5s$les3j7(]^R/xUCAUV9O?XU=X6'3K8rfF52
     P21Oe5b  C2023 11 17e+VVgn:@Wluredacted;3P1ZP^5nH_]508'\clickXFg4#/\=On0F52
     P21Oe5b 1C2023 11 18.06872 05 45 15.51 +03 51 48.3    ~BI6M 20.9 VXNEOCP033
     P21Oe5b 1C2023 11 18.07202 05 45 15.88 +03 52 02.8    ~BI6M 21.0 VXNEOCP033
     P21Oe5b 1C2023 11 18.07532 05 45 16.22 +03 52 17.1    ~BI6M 20.6 VXNEOCP033
     P21Oe5b KC2023 11 18$Hw/Y$i/XXrZ=Vp'nQdLx+:U:QrCE\m41M8T6.fn'G17q9_HhereH21
     P21Oe5b KC2023 11 18#1.%U#0(F/dH#R3*DA@S.5ZUK90(pu)YT8\et\t9_Qkr[6:ViHE#H21
     P21Oe5b KC2023 11 18WEN7_8?U3hg;JRi-'(FXtn02JforS4I0En^\-v=c$+Ps0]cqdE=BH21
     P21Oe5b  C2023 11 18?5j)Hn\6=l\f*rsZtjCSvt,1CWuitqb/bl10(HNO^:YVgn+X78.eF52
     P21Oe5b  C2023 11 18rnvKK_EwG.explanation9m@IvBQKk^63Rukj3S/`G`L1;qbY!0yF52

Station data:
(033) Karl Schwarzschild Observatory, Tautenburg  (N50.980137 E11.711240)
   Germany.  Observer B. Stecklum. 1.34-m f/3 Schmidt + CCD.
(F52) Pan-STARRS 2, Haleakala  (N20.707382 W156.255910)  US/Hawaii.
   Observers J. Bulger, T. Dukes, T. Lowe, A. Schultz, M. Willman. Measurers
   K. Chambers, S. Chastel, T. de Boer, L. Denneau, J. Fairlamb, H.
   Flewelling, M. Huber, C.-C. Lin, E. Magnier, Y. Ramanjooloo, R. Wainscoat,
   R. Weryk. 1.8-m Ritchey-Chrétien + CCD.
(H21) Astronomical Research Observatory, Westfield  (N39.483054 W87.968270)
   US/Illinois.  Observer R. Holmes. Measurers S. Foglia, L. Buzzi, T.
   Linder, R. Holmes. 0.76-m f/3.0 astrograph + CCD0.81-m f/4.0 astrograph +
   CCD0.61-m f/4.5 astrograph + CCD0.40-m f/5.32 astrograph + CCD.

Orbital elements:  P21Oe5b
   Perihelion 2023 Nov 20.30001 +/- 0.572 TT =  7:12:01 (JD 2460268.80001)
Epoch 2023 Nov 18.0 TT = JDT 2460266.5   Earth MOID: 0.1483      AutoNEOCP
M 359.12704223 +/- 0.21             (J2000 ecliptic)
n   0.37954439 +/- 0.00297          Peri.  348.16344 +/- 0.6
a   1.88927128 +/- 0.00986          Node    73.03282 +/- 0.06
e   0.4012348 +/- 0.00281           Incl.   12.06501 +/- 0.12
P   2.60/948.49d           H 23.54  G  0.15   U  8.8
q 1.13122972 +/- 0.000898    Q 2.64731284 +/- 0.0191
From 13 observations 2023 Nov. 17-18 (23.0 hr); mean residual 0".19
Residuals in arcseconds: 
231117 F52  .26-  .08-    231118 033  .38+  .05-    231118 H21  .05+  .00     
231117 F52  .04+  .29+    231118 033  .18+  .13+    231118 F52  .10-  .08-    
231117 F52  .39+  .12-    231118 033  .47-  .11+    231118 F52  .05+  .07+    
231117 F52  .03+  .02-    231118 H21  .20+  .01+    
231117 F52  .22-  .10-    231118 H21  .03+  .04-    

Ephemerides (geocentric):
Date (UTC) HH   RA             Dec           delta  r     elong  mag " sig PA
---- --------  ------------   ------------  ------ ------ -----  --- --------
2023 11 21 06  05 52 01.243   +07 51 41.52  .16671 1.1313 146.9 21.2 11.4  28
2023 11 21 07  05 52 06.455   +07 54 56.24  .16666 1.1313 146.9 21.2 11.7  28
2023 11 21 08  05 52 11.665   +07 58 11.13  .16661 1.1313 146.9 21.2 12.0  28
2023 11 21 09  05 52 16.872   +08 01 26.16  .16656 1.1313 147.0 21.2 12.3  28
2023 11 21 10  05 52 22.077   +08 04 41.36  .16652 1.1313 147.0 21.2 12.6  28
2023 11 21 11  05 52 27.279   +08 07 56.71  .16647 1.1313 147.1 21.2 13.0  28
2023 11 21 12  05 52 32.478   +08 11 12.22  .16642 1.1313 147.1 21.2 13.3  28
2023 11 21 13  05 52 37.675   +08 14 27.88  .16637 1.1313 147.1 21.2 13.6  28
2023 11 21 14  05 52 42.869   +08 17 43.69  .16633 1.1313 147.2 21.2 13.9  28
2023 11 21 15  05 52 48.060   +08 20 59.66  .16628 1.1313 147.2 21.2 14.3  28
2023 11 21 16  05 52 53.248   +08 24 15.78  .16624 1.1313 147.3 21.2 14.6  28
2023 11 21 17  05 52 58.434   +08 27 32.06  .16619 1.1313 147.3 21.2 15.0  28
2023 11 21 18  05 53 03.617   +08 30 48.48  .16615 1.1313 147.3 21.2 15.3  28
2023 11 21 19  05 53 08.797   +08 34 05.05  .16610 1.1313 147.4 21.2 15.7  28
2023 11 21 20  05 53 13.975   +08 37 21.78  .16606 1.1313 147.4 21.2 16.0  28
2023 11 21 21  05 53 19.149   +08 40 38.65  .16601 1.1313 147.5 21.2 16.4  28
2023 11 21 22  05 53 24.322   +08 43 55.67  .16597 1.1314 147.5 21.1 16.8  28
2023 11 21 23  05 53 29.491   +08 47 12.84  .16592 1.1314 147.5 21.1 17.1  28
2023 11 22 00  05 53 34.657   +08 50 30.16  .16588 1.1314 147.6 21.1 17.5  28
2023 11 22 01  05 53 39.821   +08 53 47.62  .16584 1.1314 147.6 21.1 17.9  28
2023 11 22 02  05 53 44.982   +08 57 05.23  .16579 1.1314 147.7 21.1 18.3  28
2023 11 22 03  05 53 50.141   +09 00 22.98  .16575 1.1314 147.7 21.1 18.6  28
2023 11 22 04  05 53 55.296   +09 03 40.88  .16571 1.1314 147.7 21.1 19.0  28
2023 11 22 05  05 54 00.449   +09 06 58.92  .16567 1.1314 147.8 21.1 19.4  28
2023 11 22 06  05 54 05.599   +09 10 17.11  .16562 1.1314 147.8 21.1 19.8  28
2023 11 22 07  05 54 10.746   +09 13 35.43  .16558 1.1314 147.9 21.1 20.2  27
2023 11 22 08  05 54 15.891   +09 16 53.90  .16554 1.1314 147.9 21.1 20.6  27
2023 11 22 09  05 54 21.032   +09 20 12.51  .16550 1.1314 147.9 21.1 21.0  27
2023 11 22 10  05 54 26.171   +09 23 31.26  .16546 1.1314 148.0 21.1 21.5  27
2023 11 22 11  05 54 31.307   +09 26 50.15  .16542 1.1314 148.0 21.1 21.9  27
2023 11 22 12  05 54 36.440   +09 30 09.17  .16538 1.1315 148.1 21.1 22.3  27
2023 11 22 13  05 54 41.570   +09 33 28.34  .16534 1.1315 148.1 21.1 22.7  27
2023 11 22 14  05 54 46.698   +09 36 47.64  .16530 1.1315 148.1 21.1 23.2  27
2023 11 22 15  05 54 51.823   +09 40 07.08  .16526 1.1315 148.2 21.1 23.6  27
2023 11 22 16  05 54 56.944   +09 43 26.65  .16522 1.1315 148.2 21.1 24.0  27
2023 11 22 17  05 55 02.063   +09 46 46.36  .16518 1.1315 148.3 21.1 24.5  27
2023 11 22 18  05 55 07.180   +09 50 06.20  .16514 1.1315 148.3 21.1 24.9  27
2023 11 22 19  05 55 12.293   +09 53 26.18  .16510 1.1315 148.3 21.1 25.4  27
2023 11 22 20  05 55 17.403   +09 56 46.29  .16506 1.1315 148.4 21.1 25.8  27
2023 11 22 21  05 55 22.511   +10 00 06.53  .16502 1.1315 148.4 21.1 26.3  27
2023 11 22 22  05 55 27.615   +10 03 26.90  .16499 1.1315 148.5 21.1 26.8  27
2023 11 22 23  05 55 32.717   +10 06 47.40  .16495 1.1316 148.5 21.1 27.2  27
2023 11 23 00  05 55 37.816   +10 10 08.04  .16491 1.1316 148.5 21.1 27.7  27
2023 11 23 01  05 55 42.912   +10 13 28.80  .16488 1.1316 148.6 21.1 28.2  27
2023 11 23 02  05 55 48.005   +10 16 49.69  .16484 1.1316 148.6 21.1 28.7  27
2023 11 23 03  05 55 53.095   +10 20 10.71  .16480 1.1316 148.6 21.1 29.2  27
2023 11 23 04  05 55 58.183   +10 23 31.85  .16477 1.1316 148.7 21.1 29.7  27
2023 11 23 05  05 56 03.267   +10 26 53.12  .16473 1.1316 148.7 21.1 30.1  27